Location: Campo Alegre
(10.4289°N, 66.6519°W)
Time: 22:51:23
(UTC+00:00)

Cosmos 1378 - Pass Details

Date: 29 May 2024
Orbit: 416 x 417 km, 82.5° (Epoch: 21 June)

Event Time Altitude Azimuth Distance (km) Brightness Sun altitude
Rises 23:17:42 0° 181° (S) 2,361 6.3 -8.3°
Reaches altitude 10° 23:19:44 10° 179° (S) 1,499 5.3 -8.7°
Maximum altitude 23:22:59 72° 94° (E) 444 2.7 -9.5°
Drops below altitude 10° 23:26:14 10° 9° (N) 1,502 5.8 -10.2°
Sets 23:28:16 0° 7° (N) 2,366 6.8 -10.6°
